Tracking 23762 objects as of 21-Oct-2021
HD Live streaming from Space Station
objects crossing your sky now

SL-8 R/B

Track SL-8 R/B now!
10-day predictions


NORAD ID: 17160
Int'l Code: 1986-093B
Perigee: 960.7 km
Apogee: 1,019.4 km
Inclination: 82.9 °
Period: 104.8 minutes
Semi major axis: 7361 km
RCS: 4.5547 m2 (large)
Launch date: November 24, 1986
Source: Commonwealth of Independent States (former USSR) (CIS)
Launch site: PLESETSK MISSILE AND SPACE COMPLEX (PKMTR)

Note: This is a ROCKET BODY
aabbcc
Your satellite tracking list
Your tracking list is empty




NASA's NSSDC Master Catalog

Two Line Element Set (TLE):
1 17160U 86093B   21293.64116859  .00000085  00000-0  73140-4 0  9990
2 17160  82.9270 327.3679 0039853  48.9255  67.5832 13.74653852750550
Source of the keplerian elements: AFSPC